Flag for U.S.A. Weather past 2 weeks in Santa Clara, California, U.S.A.

Now
49 °F

Passing clouds.


Feels Like: 49 °F
Forecast: 42 / 65 °F
Wind: No wind

Location: San Jose International Airport

Current Time: Jan 25, 2015 at 11:20:35 PM

Latest Report: Jan 25, 2015 at 10:53 PM


Visibility: 10 mi

Pressure: 30.05 "Hg

Humidity: 77%

Dew point: 42 °F

Location of Santa ClaraLocation

Historic Weather in Santa Clara — Graph

°F

Santa Clara temperature yesterday

Maximum temperature yesterday: 69 °F (at 3:53 PM)
Minimum temperature yesterday: 42 °F (at 6:53 AM)
Average temperature yesterday: 54 °F

Past Weeks' High & Low Weather Summary

 TemperatureHumidityPressure
High69 °F (Jan 24, 3:53 PM)100% (Jan 11, 4:53 AM)30.36 "Hg (Jan 11, 4:53 AM)
Low37 °F (Jan 23, 5:53 AM)29% (Jan 24, 3:53 PM)30.00 "Hg (Jan 25, 4:53 PM)
Average51 °F78%30.20 "Hg
* Reported Jan 10 9:53 PM — Jan 25 9:53 PM, Santa Clara, Weather by CustomWeather, © 2014

Note: Actual official high and low records may vary slightly from our data, if they occured in-between our weather recording intervals... More about our weather records

Advertising

Santa Clara weather history for previous 24 hours

 ConditionsComfort  
Time TempWeatherWind HumidityBarometerVisibility
9:53 PM
Jan 25
51 °FPassing clouds.6 mph74%30.04 "Hg10 mi
8:53 PM52 °FClear.3 mph75%30.04 "Hg10 mi
7:53 PM54 °FClear.No wind62%30.03 "Hg10 mi
6:53 PM57 °FClear.No wind55%30.03 "Hg10 mi
5:53 PM59 °FPassing clouds.No wind51%30.01 "Hg10 mi
4:53 PM62 °FSunny.No wind48%30.00 "Hg10 mi
3:53 PM63 °FSunny.5 mph48%30.01 "Hg10 mi
2:53 PM63 °FSunny.No wind47%30.03 "Hg10 mi
1:53 PM61 °FSunny.6 mph50%30.04 "Hg10 mi
12:53 PM59 °FSunny.3 mph56%30.06 "Hg10 mi
11:53 AM56 °FSunny.No wind65%30.10 "Hg10 mi
10:53 AM55 °FSunny.6 mph67%30.13 "Hg10 mi
9:53 AM50 °FPassing clouds.No wind74%30.14 "Hg10 mi
8:53 AM46 °FPassing clouds.No wind83%30.14 "Hg10 mi
7:53 AM42 °FPassing clouds.3 mph89%30.14 "Hg10 mi
6:53 AM42 °FClear.No wind89%30.14 "Hg10 mi
5:53 AM41 °FClear.No wind86%30.12 "Hg10 mi
4:53 AM39 °FClear.3 mph86%30.12 "Hg10 mi
3:53 AM43 °FClear.No wind76%30.11 "Hg10 mi
2:53 AM45 °FClear.No wind71%30.12 "Hg10 mi
1:53 AM47 °FClear.No wind66%30.13 "Hg10 mi
12:53 AM45 °FClear.5 mph71%30.13 "Hg10 mi
11:53 PM
Jan 24
49 °FClear.No wind64%30.13 "Hg10 mi
Weather by CustomWeather, © 2014

See weather overviewHow to use our weather pages